This is the latest recevied weather packets stored in our database for station/object WX7EM. If no packets are shown the sender has not sent any weather packets the latest 10 day(s).
| Time | Temp. | Humidity | Pressure | Rain* | Wind** | Luminosity | Snow |
|---|---|---|---|---|---|---|---|
| 1777764172 | 19.44° C | 67% | 1011.4 hPa | 0 mm | - | 237 W/m² | - |
| 1777763868 | 19.44° C | 67% | 1011.4 hPa | 0 mm | - | 231 W/m² | - |
| 1777763566 | 18.89° C | 67% | 1011.4 hPa | 0 mm | - | 242 W/m² | - |
| 1777763264 | 18.89° C | 69% | 1011.7 hPa | 0 mm | - | 314 W/m² | - |
| 1777762962 | 18.89° C | 68% | 1011.9 hPa | 0 mm | - | 261 W/m² | - |
| 1777762659 | 18.89° C | 68% | 1011.6 hPa | 0 mm | - | 257 W/m² | - |
| 1777762356 | 19.44° C | 67% | 1011.6 hPa | 0 mm | - | 266 W/m² | - |
| 1777762052 | 18.33° C | 69% | 1011.7 hPa | 0 mm | - | 293 W/m² | - |
| 1777761749 | 18.89° C | 69% | 1011.8 hPa | 0 mm | - | 299 W/m² | - |
| 1777761446 | 18.33° C | 71% | 1012.2 hPa | 0 mm | - | 275 W/m² | - |
| 1777761144 | 17.78° C | 70% | 1012.2 hPa | 0 mm | - | 272 W/m² | - |
| 1777760841 | 18.33° C | 70% | 1012.2 hPa | 0 mm | - | 228 W/m² | - |
| 1777760538 | 18.89° C | 69% | 1012 hPa | 0 mm | - | 242 W/m² | - |
| 1777760234 | 18.33° C | 67% | 1012.1 hPa | 0 mm | - | 227 W/m² | - |
| 1777759931 | 17.78° C | 71% | 1012.4 hPa | 0 mm | - | 228 W/m² | - |
| 1777759627 | 17.78° C | 70% | 1012.4 hPa | 0 mm | - | 236 W/m² | - |
| 1777759323 | 17.78° C | 71% | 1012.8 hPa | 0 mm | - | 257 W/m² | - |
| 1777759020 | 17.78° C | 72% | 1012.8 hPa | 0 mm | - | 260 W/m² | - |
| 1777758717 | 17.22° C | 72% | 1012.9 hPa | 0 mm | - | 286 W/m² | - |
| 1777758415 | 16.67° C | 72% | 1013 hPa | 0 mm | - | 315 W/m² | - |
| 1777758112 | 17.22° C | 72% | 1012.9 hPa | 0 mm | - | 331 W/m² | - |
| 1777757809 | 17.78° C | 72% | 1013.1 hPa | 0 mm | - | 361 W/m² | - |
| 1777757506 | 16.67° C | 75% | 1013 hPa | 0 mm | - | 414 W/m² | - |
| 1777757204 | 16.67° C | 73% | 1013.1 hPa | 0 mm | - | 478 W/m² | - |
| 1777756903 | 16.11° C | 75% | 1013 hPa | 0 mm | - | 444 W/m² | - |
* Rain latest hour (hover to see other rain measurements)
** Current wind speed in m/s (hover to see current wind gust speed)